Welcome to the New NWS' Forecast!
Most changes are behind the scenes, but click here for differences you might notice.
Latest weather observations around

Hawthorne, Hawthorne Municipal Airport (KHHR)

Using English Units (Switch to International System of Units)
Date/ Time (PDT) Wind (mph) Vis. (mi) Weather Sky Cond. Temp (°F) Rel. Humidity Wind Chill (°F) Heat Index (°F) Pressure Precip. (in)
Air Dwpt 6 hour Altimeter (inHg) Sea level (inHg) 1 hr 3 hr 6 hr
Max Min
Oct 21 00:53 ESE 5 10 Clear CLR 68 49     50%     29.9 29.9      
Oct 20 23:53 Calm 10 Clear CLR 70 48     46%     29.91 29.9      
Oct 20 22:53 E 3 10 Clear CLR 71 50     47%   70 29.91 29.9      
Oct 20 21:53 ESE 3 10 Clear CLR 70 54     57%     29.9 29.9      
Oct 20 20:53 SE 6 10 Clear CLR 71 56     59%   71 29.89 29.88      
Oct 20 19:53 WNW 6 10 Clear CLR 74 50     43%   73 29.87 29.87      
Oct 20 18:53 W 8 10 Clear CLR 74 56     53%   74 29.87 29.87      
Oct 20 17:53 W 9 10 Clear CLR 77 48     36%   76 29.86 29.85      
Oct 20 16:53 WSW 11 10 Clear CLR 80 46     30%   79 29.86 29.86      
Oct 20 15:53 WNW 7 10 Clear CLR 83 42     24%   81 29.87 29.86      
Oct 20 14:53 W 9 10 Clear CLR 86 38     18%   83 29.88 29.87      
Oct 20 13:53 W 10 10 Clear CLR 88 36     16%   84 29.89 29.88      
Oct 20 12:53 WNW 7 10 Clear CLR 89 33     14%   85 29.92 29.91      
Oct 20 12:23 W 5 10 Clear CLR 88 31     13%   84 29.93        
Oct 20 12:14   2.5 Haze CLR 87 31     13%   83 29.93        
Oct 20 11:53 3 10 Clear CLR 86 32     14%   83 29.94 29.93      
Oct 20 10:53 Calm 10 Clear CLR 83 32     16%   80 29.95 29.95      
Oct 20 09:53 Calm 10 Clear CLR 76 36     23%   74 29.97 29.96      
Oct 20 08:53 Calm 10 Clear CLR 69 42     38%     29.97 29.96      
Oct 20 07:53 Calm 10 Clear CLR 63 45     52%     29.96 29.95      
Oct 20 06:53 Calm 10 Clear CLR 63 39     41%     29.95 29.94      
Oct 20 05:53 Calm 10 Clear CLR 61 45     56%     29.94 29.94      
Oct 20 04:53 Calm 10 Clear CLR 62 42     48%     29.94 29.93      
Oct 20 03:53 Calm 10 Clear CLR 63 51     65%     29.94 29.93      
Oct 20 02:53 Calm 10 Clear CLR 64 45     50%     29.94 29.93      
Oct 20 01:53 Calm 10 Clear CLR 66 48     52%     29.95 29.95      
Oct 20 00:53 Calm 10 Clear CLR 67 51     57%     29.95 29.95      
Oct 19 23:53 Calm 10 Clear CLR 68 54     61%     29.95 29.95      
Oct 19 22:53 Calm 10 Clear CLR 69 57     65%     29.96 29.96      
Oct 19 21:53 Calm 10 Clear CLR 70 57     63%     29.96 29.96      
Oct 19 20:53 Calm 10 Clear CLR 70 57     63%     29.95 29.95      
Oct 19 19:53 SW 5 10 Clear CLR 71 57     61%   71 29.95 29.94      
Oct 19 18:53 WSW 6 10 Clear CLR 76 45     33%   75 29.94 29.93      
Oct 19 17:53 W 7 10 Clear CLR 80 37     21%   79 29.93 29.92      
Oct 19 16:53 W 8 10 Clear CLR 85 33     16%   82 29.92 29.92      
Oct 19 15:53 W 9 10 Clear CLR 86 32     14%   83 29.93 29.93      
Oct 19 14:53 W 13 10 Clear CLR 88 35     15%   84 29.94 29.93      
Oct 19 13:53 W 11 10 Clear CLR 88 32     14%   84 29.95 29.95      
Oct 19 12:53 WSW 6 10 Clear CLR 88 32     14%   84 29.98 29.97      
Oct 19 11:53 Calm 10 Clear CLR 85 33     16%   82 30 30      
Oct 19 10:53 Calm 10 Clear CLR 82 34     18%   80 30.02 30.02      
Oct 19 09:53 Calm 10 Clear CLR 76 38     25%   74 30.04 30.03      
Oct 19 08:53 Calm 10 Clear CLR 71 40     32%   69 30.03 30.03      
Oct 19 07:53 Calm 10 Clear CLR 62 43     50%     30.02 30.01      
Oct 19 06:53 Calm 10 Clear CLR 60 44     55%     30 30      
Oct 19 05:53 Calm 10 Clear CLR 60 45     57%     30 30      
Oct 19 04:53 Calm 10 Clear CLR 60 46     60%     29.99 29.99      
Oct 19 03:53 Calm 10 Clear CLR 61 46     58%     29.99 29.98      
Oct 19 02:53 Calm 10 Clear CLR 62 48     60%     30 29.99      
Oct 19 01:53 Calm 10 Clear CLR 63 51     65%     30.01 30      
Oct 19 00:53 NNW 3 10 Clear   64 53     67%     30.01 30      
Oct 18 23:53 Calm 10 Clear CLR 65 55     70%     30.01 30.01      
Oct 18 22:53 Calm 10 Clear CLR 66 55     68%     30.01 30.01      
Oct 18 21:53 E 3 10 Clear CLR 68 55     63%     30.01 30.01      
Oct 18 20:53 Calm 10 Clear CLR 69 56     63%     30.01 30.01      
Oct 18 19:53 W 5 10 Clear CLR 70 55     59%     30 30      
Oct 18 18:53 WSW 6 10 Clear CLR 71 55     57%   71 29.99 29.99      
Oct 18 17:53 W 10 10 Clear CLR 76 47     36%   75 29.98 29.97      
Oct 18 16:53 W 7 10 Clear CLR 80 42     26%   79 29.98 29.97     0
Oct 18 15:53 W 9 10 Clear CLR 80 41     25%   79 29.98 29.98      
Oct 18 14:53 W 8 10 Clear CLR 80 41     25%   79 29.98 29.98      
Oct 18 13:53 W 7 10 Clear CLR 80 50     35%   79 30 29.99   0  
Oct 18 12:53 W 9 10 Clear CLR 83 39     21%   81 30.02 30.02 0    
Oct 18 11:53 5 10 Clear CLR 82 35     19%   80 30.05 30.04 0    
Oct 18 10:53 NW 3 10 Clear CLR 79 36     21%   78 30.07 30.06 0   0
Oct 18 09:53 Calm 10 Clear CLR 75 36     24%   73 30.08 30.07      
Oct 18 08:53 Calm 10 Clear CLR 67 39     36%     30.08 30.08 0    
Oct 18 07:53 Calm 10 Clear CLR 63 38     40%     30.07 30.06      
Oct 18 06:53 Calm 10 Clear CLR 61 37     41%     30.06 30.05      
Oct 18 05:53 Calm 10 Clear CLR 59 39     47%     30.05 30.04      
Oct 18 04:53 N 3 10 Clear CLR 61 39     44%     30.04 30.03      
Oct 18 03:53 Calm 10 Clear CLR 61 42     50%     30.03 30.03      
Oct 18 02:53 Calm 10 Clear CLR 61 46     58%     30.04 30.03      
Oct 18 01:53 Calm 10 Clear CLR 62 51     67%     30.04 30.03      
Oct 18 00:53 Calm 10 Clear CLR 63 57     81%     30.04 30.03      
Oct 17 23:53 Calm 10 Clear CLR 64 57     78%     30.04 30.04      
Oct 17 22:53 Calm 10 Clear CLR 65 57     76%     30.05 30.04      
Oct 17 21:53 Calm 10 Clear CLR 66 57     73%     30.04 30.03      
Oct 17 20:53 Calm 10 Clear CLR 67 57     71%     30.03 30.02      
Oct 17 19:53 Calm 10 Clear CLR 68 55     63%     30.02 30.01      
Oct 17 18:53 WSW 5 10 Clear   68 54     61%     30.01 30      
Oct 17 17:53 WSW 6 10 Clear CLR 70 55     59%     29.99 29.99      
Oct 17 16:53 W 7 10 Clear CLR 73 53     50%   72 29.99 29.98      
Oct 17 15:53 W 13 10 Clear CLR 74 51     45%   73 29.99 29.99      
Oct 17 14:53 WSW 14 10 Clear CLR 76 51     42%   75 30 30      
Oct 17 13:53 WSW 11 10 Clear CLR 79 48     34%   78 30.01 30.01      
Oct 17 12:53 WSW 8 10 Clear CLR 80 43     27%   79 30.04 30.04      
Oct 17 11:53 Calm 10 Clear CLR 79 28     15%   77 30.06 30.06      
Oct 17 10:53 Calm 10 Clear CLR 76 29     18%   74 30.08 30.07      
Oct 17 09:53 SE 3 10 Clear CLR 71 30     22%   69 30.09 30.08      
Oct 17 08:53 3 10 Clear CLR 68 34     28%     30.09 30.08      
Oct 17 07:53 Calm 10 Clear CLR 63 32     31%     30.08 30.07      
Oct 17 06:53 Calm 10 Clear CLR 58 37     46%     30.06 30.06      
Oct 17 05:53 Calm 10 Clear CLR 57 43     59%     30.05 30.04      
Oct 17 04:53 Calm 10 Clear CLR 58 44     60%     30.03 30.02      
Oct 17 03:53 Calm 10 Clear CLR 59 44     58%     30.02 30.01      
Oct 17 02:53 Calm 10 Clear CLR 60 45     57%     30.02 30.01      
Oct 17 01:53 Calm 10 Clear CLR 61 48     62%     30.03 30.03      
Oct 17 00:53 Calm 10 Clear CLR 62 49     62%     30.03 30.03      
Oct 16 23:53 Calm 10 Clear CLR 64 50     60%     30.04 30.04      
Oct 16 22:53 Calm 10 Clear CLR 65 53     65%     30.04 30.04      
Oct 16 20:53 SW 6 10 Clear CLR 68 52     57%     30.02 30.01      
Oct 16 19:53 W 7 10 Clear CLR 70 50     49%     30 29.99      
Oct 16 18:53 SW 6 10 Clear CLR 70 53     55%     29.98 29.97      
Oct 16 17:53 WSW 10 10 Clear CLR 72 52     49%   71 29.97 29.97      
Oct 16 16:53 WSW 15 10 Clear   73 51     46%   72 29.98 29.97      
Oct 16 15:53 W 14 10 Clear CLR 81 17     9%   79 29.97 29.97      
Oct 16 14:53 W 8 10 Clear CLR 81 18     9%   79 29.97 29.97      
Oct 16 13:53 WSW 8 10 Clear CLR 81 17     9%   79 29.99 29.98      
Oct 16 12:53 W 9 10 Clear CLR 79 17     10%   77 30.01 30.01      
Oct 16 11:53 S 7 10 Clear CLR 78 17     10%   76 30.03 30.03      
Oct 16 10:53 SW 6 10 Clear CLR 76 15     10%   74 30.05 30.04      
Oct 16 09:53 WSW 3 10 Clear CLR 71 24     17%   69 30.06 30.06      
Oct 16 08:53 Calm 10 Clear CLR 66 30     26%     30.06 30.05      
Oct 16 07:53 Calm 10 Clear CLR 58 34     40%     30.04 30.04      
Oct 16 06:53 NNW 3 10 Clear CLR 56 36     47%     30.03 30.03      
Oct 16 05:53 Calm 10 Clear CLR 55 39     55%     30.02 30.02      
Oct 16 04:53 Calm 10 Clear CLR 58 31     36%     30.01 30.01      
Oct 16 03:53 Calm 10 Clear CLR 57 39     51%     30.01 30.01      
Oct 16 02:53 Calm 10 Clear CLR 59 44     58%     30.02 30.01      
Oct 16 00:53 NNW 3 10 Clear CLR 61 49     64%     30.02 30.01      
May 15 07:44 SW 5 10 Mostly Cloudy BKN019 59 52     78%     30.05        
May 14 09:16 Calm 10 Partly Cloudy SCT019 61 52     72%     29.99        
May 14 04:53 Calm 10 Clear CLR 58 52     81%     29.96 29.96      
May 13 13:53 3 10 Mostly Cloudy BKN033 66 51     59%     30.03 30.02      
May 13 09:53 W 7 10 Cloudy OVC027 61 51     70%     30.06 30.06      
May 12 09:53 SSE 6 10 Cloudy OVC033 61 50     67%     29.98 29.98      
May 12 00:53 ESE 7 10 Cloudy SCT028 OVC036 60 55     83%     29.89 29.88      
May 11 22:40 6 10 Cloudy FEW019 BKN030 OVC041 61 55     81%     29.88        
May 11 18:53 ESE 8 10 Cloudy BKN021 OVC033 62 53     72%     29.82 29.82      
Jun 12 02:53 E 3 10 Clear CLR 59 52     78%     29.97 29.97      
Jun 11 14:53 SW 11 10 Partly Cloudy FEW024 SCT029 69 54     59%     29.92 29.92      
Jun 11 03:53 SE 6 10 Cloudy OVC031 62 56     80%     29.86 29.85 0    
Jun 11 03:44 SE 6 10 Cloudy OVC031 62 56     80%     29.86   0    
Jun 10 21:53 WSW 7 10 Mostly Cloudy BKN025 64 56     75%     29.88 29.87      
Jun 10 20:15 WSW 8 10 Mostly Cloudy BKN025 65 55     70%     29.85        
Jun 10 12:53 S 9 10 Mostly Clear FEW029 69 56     63%     29.88 29.88      
Jun 10 08:53 SE 7 10 Cloudy OVC027 64 56     75%     29.9 29.89      
Jun 09 18:53 WSW 15 10 Mostly Cloudy BKN011 BKN014 66 61     84%     29.89 29.89      
Jun 09 00:53 SE 3 10 Clear CLR 61 57     87%     29.95 29.94      
Jun 08 08:53 WSW 7 10 Cloudy BKN011 OVC015 62 59     90%     30.01 30.01 0    
Jun 08 07:53 W 6 10 Cloudy SCT008 OVC015 62 59     90%     30 30      
Jun 08 01:04 WSW 6 10 Cloudy BKN007 OVC012 61 59     93%     29.99        
Jun 08 00:27 WSW 3 9 Cloudy SCT006 OVC013 61 60     97%     29.99   0    
Jun 06 09:53 S 5 9 Cloudy OVC014 64 59     84%     29.95 29.95